Location: Butler
(32.5575°N, 84.2380°W)
Time: 06:24:06
(UTC+00:00)

Tiangong - Visible Passes

Search period start: 30 November 2021 00:00
Search period end: 10 December 2021 00:00
Orbit: 380 x 384 km, 41.5° (Epoch: 29 November)

Date Brightness Start Highest point End Pass type
(mag) Time Alt. Az. Time Alt. Az. Time Alt. Az.
30 Nov 4.1 10:21:44 10° SSE 10:21:44 10° SSE 10:21:47 10° SSE visible
05 Dec 3.4 00:22:59 10° SSW 00:24:12 19° SSW 00:24:12 19° SSW visible
05 Dec 3.1 23:23:32 10° S 23:25:36 16° SE 23:26:57 13° ESE visible
06 Dec 4.7 00:59:01 10° WSW 00:59:07 11° WSW 00:59:07 11° WSW visible
06 Dec 1.0 23:58:35 10° SW 00:01:43 68° SSE 00:01:47 67° SE visible
07 Dec 2.2 22:58:31 10° SSW 23:01:21 31° SE 23:04:13 10° E visible
08 Dec 3.6 00:35:11 10° W 00:36:33 21° WNW 00:36:33 21° WNW visible
08 Dec 1.3 23:34:28 10° WSW 23:37:34 61° NNW 23:39:04 27° NE visible
